星链-3004 (STARLINK-3004 )

导读

STARLINK-3004是美国太空探索技术公司(SpaceX)星链(Starlink)卫星互联网星座的成员,于2021年6月30日由美国发射入轨,属于Starlink Group 2-2批次。星链计划旨在构建全球卫星互联网,该卫星承担低轨宽带通信服务,补充覆盖网络,助力实现全球无死角网络接入。

基本信息
目录编号:
48880
目录名称:
STARLINK-3004
国际标识:
2021-059B
轨道中心:
EARTH
卫星名称:
星链-3004
卫星全名:
星链-3004 (STARLINK-3004 )
卫星状态:
已陨落 最后检测时间 2026-06-14
发射日期:
2021-06-30 UTC
国别 :
美国 (US)
星等 :
--
该卫星已列入 空间交会检测服务 Space Conjunction Data Service (SCDS) ,当前飞行风险评估等级: 无高风险
轨道信息
数据来源 国际轨道数据
星历时间: 2026-06-14T15:49:03+0800
轨道信息已过期89天
半长轴: 6518.601km
偏心率: 0.0013107
轨道倾角: 97.651°
近地点辐角 280.297°
升交点赤经 297.626°
平近点角 79.686°
近地点: 131.92km
远地点: 149.008km
周期: 87.295分钟
每日圈数: 16.495717
详细信息
固有亮度:
5
最大亮度:
2.5
卫星平台:
Starlink v1.5
覆盖范围:
全球
运营商:
太空探索技术公司
运营商所在国:
美国
制造商(研发单位):
太空探索技术公司
制造商所在国:
美国
使用方式:
暂无
卫星简介
星链(Starlink)计划是由太空探索技术公司(SpaceX)提出的一个巨型低轨卫星互联网星座项目,计划在2019年至2024年间在太空搭建由约1.2万颗卫星组成的“星链”网络,其中1584颗将部署在地球上空550千米处的近地轨道,并从2020年开始工作。该卫星仍在工作。
与全量物体交会距离演化趋势
与全量物体交会风险概率演化趋势